Weather History for LGTS - April, 2013

Change the Weather History Date:

Thursday, April 4, 2013

  Actual Average Record
Temperature  
Mean Temperature 56 °F -  
Max Temperature 69 °F 68 °F 75 °F (1998)
Min Temperature 43 °F 46 °F 37 °F (2015)
Degree Days  
Heating Degree Days 9    
Growing Degree Days 6 (Base 50)    
Moisture  
Dew Point 44 °F    
Average Humidity 65    
Maximum Humidity 93    
Minimum Humidity 24    
Precipitation  
Precipitation 0.00 in 0.05 in - ()
Sea Level Pressure  
Sea Level Pressure 29.75 in    
Wind  
Wind Speed 4 mph ()    
Max Wind Speed 9 mph    
Max Gust Speed -    
Visibility 6.2 miles    
Events      
Averages and records for this station are not official NWS values.
T = Trace of Precipitation, MM = Missing Value Source: Averaged Metar Reports

Daily Weather History Graph

Daily Weather History Graph

Search for Another Location

Airport or City:

Trip Planner

Search our weather history database for the weather conditions in past years. The results will help you decide how hot, cold, wet, or windy it might be!

Date:

Astronomy

Apr. 04, 2013 Rise Set
Actual Time 7:06 AM EEST 7:55 PM EEST
Civil Twilight 6:39 AM EEST 8:23 PM EEST
Nautical Twilight 6:06 AM EEST 8:56 PM EEST
Astronomical Twilight 5:32 AM EEST 9:30 PM EEST
Moon 3:21 AM EEST (4/4) 1:52 PM EEST (4/4)
Length of Visible Light 13h 44m
Length of Day
12h 48m
Last Quarter, 37% of the Moon is Illuminated
Apr 4
Last Quarter
Apr 10
New
Apr 18
First Quarter
Apr 25
Full
May 2
Last Quarter

Hourly Weather History & Observations

Time (EEST) Temp. Windchill Dew Point Humidity Pressure Visibility Wind Dir Wind Speed Gust Speed Precip Events Conditions
12:20 AM 57.2 °F - 50.0 °F 77% 29.62 in 6.2 mi NW 4.6 mph - N/A   Scattered Clouds
12:50 AM 55.4 °F - 48.2 °F 77% 29.62 in 6.2 mi Variable 3.5 mph - N/A   Scattered Clouds
1:20 AM 53.6 °F - 48.2 °F 82% 29.62 in 6.2 mi Variable 3.5 mph - N/A   Scattered Clouds
1:50 AM 51.8 °F - 46.4 °F 82% 29.62 in 6.2 mi Calm Calm - N/A   Scattered Clouds
2:20 AM 50.0 °F - 46.4 °F 87% 29.62 in 6.2 mi Variable 2.3 mph - N/A   Partly Cloudy
3:00 AM 50 °F - 47 °F 85% 29.65 in 6 mi 3.5 mph - -   Scattered Clouds
3:20 AM 48.2 °F - 44.6 °F 87% 29.65 in 6.2 mi Calm Calm - N/A   Partly Cloudy
3:50 AM 46.4 °F 43.5 °F 44.6 °F 93% 29.65 in 6.2 mi ESE 5.8 mph - N/A   Partly Cloudy
4:20 AM 46.4 °F 45.2 °F 42.8 °F 87% 29.65 in 6.2 mi Variable 3.5 mph - N/A   Partly Cloudy
4:50 AM 46.4 °F 45.2 °F 42.8 °F 87% 29.65 in 6.2 mi Variable 3.5 mph - N/A   Partly Cloudy
5:20 AM 46.4 °F 45.2 °F 42.8 °F 87% 29.68 in 6.2 mi Variable 3.5 mph - N/A   Partly Cloudy
5:50 AM 44.6 °F - 42.8 °F 93% 29.68 in 6.2 mi Variable 2.3 mph - N/A   Partly Cloudy
6:20 AM 44.6 °F 43.1 °F 41.0 °F 87% 29.68 in 6.2 mi Variable 3.5 mph - N/A   Partly Cloudy
6:50 AM 42.8 °F - 41.0 °F 93% 29.71 in 6.2 mi Variable 2.3 mph - N/A   Partly Cloudy
7:20 AM 42.8 °F 40.1 °F 41.0 °F 93% 29.71 in 6.2 mi ESE 4.6 mph - N/A   Partly Cloudy
7:50 AM 44.6 °F 40.7 °F 41.0 °F 87% 29.71 in 6.2 mi ESE 6.9 mph - N/A   Partly Cloudy
8:20 AM 46.4 °F 44.3 °F 44.6 °F 93% 29.74 in 6.2 mi ESE 4.6 mph - N/A   Partly Cloudy
8:50 AM 50.0 °F - 46.4 °F 87% 29.74 in 6.2 mi Variable 3.5 mph - N/A   Partly Cloudy
9:00 AM 51 °F - 46 °F 79% 29.75 in 6 mi 3.5 mph - -   Scattered Clouds
9:20 AM 53.6 °F - 48.2 °F 82% 29.74 in 6.2 mi Calm Calm - N/A   Partly Cloudy
9:50 AM 57.2 °F - 46.4 °F 67% 29.74 in 6.2 mi Variable 2.3 mph - N/A   Partly Cloudy
10:20 AM 55.4 °F - 48.2 °F 77% 29.77 in 6.2 mi West 6.9 mph - N/A   Partly Cloudy
10:50 AM 59.0 °F - 48.2 °F 67% 29.77 in 6.2 mi WNW 4.6 mph - N/A   Partly Cloudy
11:20 AM 60.8 °F - 48.2 °F 63% 29.77 in 6.2 mi WNW 6.9 mph - N/A   Partly Cloudy
11:50 AM 60.8 °F - 46.4 °F 59% 29.77 in 6.2 mi NW 4.6 mph - N/A   Partly Cloudy
12:20 PM 64.4 °F - 42.8 °F 45% 29.77 in 6.2 mi Variable 3.5 mph - N/A   Partly Cloudy
12:50 PM 64.4 °F - 41.0 °F 42% 29.77 in 6.2 mi Variable 3.5 mph - N/A   Partly Cloudy
1:20 PM 64.4 °F - 41.0 °F 42% 29.77 in 6.2 mi NW 4.6 mph - N/A   Partly Cloudy
1:50 PM 66.2 °F - 41.0 °F 40% 29.77 in 6.2 mi Variable 3.5 mph - N/A   Partly Cloudy
2:20 PM 68.0 °F - 41.0 °F 37% 29.77 in 6.2 mi Variable 3.5 mph - N/A   Partly Cloudy
2:50 PM 68.0 °F - 39.2 °F 35% 29.77 in 6.2 mi Variable 3.5 mph - N/A   Partly Cloudy
3:00 PM 68 °F - 40 °F 24% 29.78 in 6 mi 3.5 mph - -   Scattered Clouds
3:20 PM 69.8 °F - 39.2 °F 33% 29.77 in 6.2 mi West 6.9 mph - N/A   Partly Cloudy
3:50 PM 69.8 °F - 44.6 °F 40% 29.77 in 6.2 mi West 6.9 mph - N/A   Partly Cloudy
4:50 PM 69.8 °F - 42.8 °F 38% 29.77 in 6.2 mi Variable 3.5 mph - N/A   Scattered Clouds
5:20 PM 68.0 °F - 42.8 °F 40% 29.77 in 6.2 mi West 6.9 mph - N/A   Scattered Clouds
5:50 PM 69.8 °F - 39.2 °F 33% 29.77 in 6.2 mi WSW 8.1 mph - N/A   Scattered Clouds
6:20 PM 69.8 °F - 37.4 °F 31% 29.80 in 6.2 mi WSW 6.9 mph - N/A   Scattered Clouds
6:50 PM 68.0 °F - 42.8 °F 40% 29.80 in 6.2 mi SW 8.1 mph - N/A   Scattered Clouds
7:20 PM 66.2 °F - 42.8 °F 43% 29.80 in 6.2 mi SSW 5.8 mph - N/A   Partly Cloudy
7:50 PM 62.6 °F - 44.6 °F 52% 29.80 in 6.2 mi SSW 9.2 mph - N/A   Partly Cloudy
8:20 PM 60.8 °F - 44.6 °F 55% 29.83 in 6.2 mi SSW 5.8 mph - N/A   Partly Cloudy
8:50 PM 57.2 °F - 44.6 °F 63% 29.83 in 6.2 mi ESE 4.6 mph - N/A   Partly Cloudy
9:00 PM 58 °F - 45 °F 52% 29.84 in 6 mi ESE 4.6 mph - -   Scattered Clouds
10:20 PM 51.8 °F - 42.8 °F 71% 29.89 in - ESE 5.8 mph - N/A   Clear
10:50 PM 51.8 °F - 42.8 °F 71% 29.89 in - ESE 6.9 mph - N/A   Clear
11:20 PM 50.0 °F - 42.8 °F 76% 29.89 in - ESE 5.8 mph - N/A   Clear
11:50 PM 50.0 °F - 42.8 °F 76% 29.89 in - ESE 6.9 mph - N/A   Clear